C/2018 L2 ( ATLAS )

Japanese version
Home page
Updated on September 17, 2019

---------------------------------------------------------------------

* Profile

Discovery Date June 6, 2018
Magnitude 15.6 mag
Discoverer Asteroid Terrestrial-impact Last Alert System (ATLAS) search program

* Pictures

* Orbital Elements

Epoch 2018 Nov. 18.0 TT = JDT 2458440.5
T 2018 Dec. 2.57803 TT                                  Williams
q   1.7116858            (2000.0)            P               Q
z  +0.0041075      Peri.   56.22929     +0.03219928     +0.56732469
 +/-0.0000011      Node   243.01864     -0.89265465     +0.38665877
e   0.9929692      Incl.   67.42374     +0.44958968     +0.72707475
From 564 observations 2018 June 4-2019 July 10, mean residual 0".5.

* Finding Charts

* Magnitudes Graph

        m1 = 3.0 + 5 log d + 25.0 log r  [ ,0]  (             - 2018 Dec.  2)
        m1 = 5.1 + 5 log d + 16.0 log r  [0, ]  (2018 Dec.  2 -             )

---------------------------------------------------------------------

The orbital elements are published on M.P.E.C. 2019-Q135.
The charts are made with StellaNavigator Ver.10 (AstroArts).
The magnitudes graphs are made with Comet for Windows.

---------------------------------------------------------------------

Copyright(C) Seiichi Yoshida (comet@aerith.net). All rights reserved.